This is the latest recevied weather packets stored in our database for station/object KC9GSD. If no packets are shown the sender has not sent any weather packets the latest 10 day(s).
| Time | Temp. | Humidity | Pressure | Rain* | Wind** | Luminosity | Snow |
|---|---|---|---|---|---|---|---|
| 1778372748 | 18.33° C | 87% | 1012.1 hPa | 0 mm | - | 6 W/m² | - |
| 1778372445 | 18.33° C | 85% | 1012.2 hPa | 0 mm | - | 9 W/m² | - |
| 1778372142 | 18.89° C | 85% | 1011.9 hPa | 0 mm | - | 10 W/m² | - |
| 1778371841 | 18.89° C | 84% | 1012.1 hPa | 0 mm | - | 12 W/m² | - |
| 1778371536 | 18.89° C | 84% | 1012 hPa | 0 mm | - | 15 W/m² | - |
| 1778371233 | 18.89° C | 84% | 1012 hPa | 0 mm | - | 17 W/m² | - |
| 1778370930 | 19.44° C | 84% | 1012 hPa | 0 mm | - | 18 W/m² | - |
| 1778370627 | 20° C | 80% | 1011.8 hPa | 0 mm | - | 22 W/m² | - |
| 1778370323 | 20° C | 80% | 1012 hPa | 0 mm | - | 26 W/m² | - |
| 1778370021 | 20° C | 78% | 1011.9 hPa | 0 mm | - | 33 W/m² | - |
| 1778369718 | 20.56° C | 78% | 1011.9 hPa | 0 mm | - | 40 W/m² | - |
| 1778369415 | 20.56° C | 76% | 1011.7 hPa | 0 mm | - | 39 W/m² | - |
| 1778369112 | 20.56° C | 76% | 1012.1 hPa | 0 mm | - | 43 W/m² | - |
| 1778368808 | 20.56° C | 73% | 1012 hPa | 0 mm | - | 56 W/m² | - |
| 1778368505 | 21.11° C | 76% | 1011.9 hPa | 0 mm | - | 53 W/m² | - |
| 1778368202 | 21.11° C | 74% | 1012 hPa | 0 mm | - | 64 W/m² | - |
| 1778367899 | 21.67° C | 72% | 1012.1 hPa | 0 mm | - | 75 W/m² | - |
| 1778367595 | 21.11° C | 73% | 1012 hPa | 0 mm | - | 87 W/m² | - |
| 1778367292 | 21.67° C | 71% | 1011.8 hPa | 0 mm | - | 91 W/m² | - |
| 1778366987 | 21.67° C | 71% | 1012.1 hPa | 0 mm | - | 95 W/m² | - |
| 1778366683 | 21.67° C | 72% | 1011.7 hPa | 0 mm | - | 125 W/m² | - |
| 1778366380 | 22.22° C | 71% | 1011.8 hPa | 0 mm | - | 118 W/m² | - |
| 1778366077 | 21.67° C | 72% | 1011.9 hPa | 0 mm | - | 128 W/m² | - |
| 1778365775 | 21.67° C | 70% | 1011.8 hPa | 0 mm | - | 138 W/m² | - |
| 1778365469 | 22.22° C | 71% | 1011.7 hPa | 0 mm | - | 149 W/m² | - |
* Rain latest hour (hover to see other rain measurements)
** Current wind speed in m/s (hover to see current wind gust speed)